TimeEDT,TemperatureF,Dew PointF,Humidity,Sea Level PressureIn,VisibilityMPH,Wind Direction,Wind SpeedMPH,Gust SpeedMPH,PrecipitationIn,Events,Conditions,WindDirDegrees,DateUTC
12:56 AM,62.1,60.1,93,30.04,10.0,SW,6.9,-,N/A,,Clear,230,2013-07-27 04:56:00
1:56 AM,61.0,60.1,97,30.04,10.0,WSW,5.8,-,N/A,,Clear,240,2013-07-27 05:56:00
2:56 AM,61.0,59.0,93,30.04,10.0,WSW,6.9,-,N/A,,Clear,240,2013-07-27 06:56:00
3:56 AM,60.1,57.9,93,30.04,10.0,WSW,4.6,-,N/A,,Clear,240,2013-07-27 07:56:00
4:56 AM,59.0,57.9,96,30.04,10.0,Calm,Calm,-,N/A,,Clear,0,2013-07-27 08:56:00
5:56 AM,55.9,55.9,100,30.06,10.0,Calm,Calm,-,N/A,,Clear,0,2013-07-27 09:56:00
6:56 AM,63.0,60.1,90,30.07,10.0,SW,4.6,-,N/A,,Clear,230,2013-07-27 10:56:00
7:56 AM,66.0,62.1,87,30.07,10.0,SW,6.9,-,N/A,,Clear,230,2013-07-27 11:56:00
8:56 AM,70.0,63.0,78,30.08,10.0,Variable,4.6,-,N/A,,Clear,0,2013-07-27 12:56:00
9:56 AM,73.9,64.0,71,30.08,10.0,North,-9999.0,-,N/A,,Clear,0,2013-07-27 13:56:00
10:56 AM,75.9,63.0,64,30.07,10.0,WSW,4.6,-,N/A,,Clear,250,2013-07-27 14:56:00
11:56 AM,80.1,63.0,56,30.07,10.0,SSW,8.1,-,N/A,,Clear,210,2013-07-27 15:56:00
12:56 PM,82.0,62.1,51,30.06,10.0,SW,9.2,-,N/A,,Scattered Clouds,220,2013-07-27 16:56:00
1:56 PM,84.0,57.9,41,30.05,10.0,SSW,9.2,17.3,N/A,,Scattered Clouds,210,2013-07-27 17:56:00
2:56 PM,84.0,60.1,44,30.04,10.0,SW,5.8,-,N/A,,Partly Cloudy,220,2013-07-27 18:56:00
3:56 PM,82.0,60.1,47,30.03,10.0,SSW,6.9,-,N/A,,Partly Cloudy,200,2013-07-27 19:56:00
4:56 PM,82.0,62.1,51,30.02,10.0,SW,6.9,-,N/A,,Clear,220,2013-07-27 20:56:00
5:56 PM,80.1,61.0,52,30.02,10.0,SW,6.9,-,N/A,,Mostly Cloudy,220,2013-07-27 21:56:00
6:56 PM,79.0,63.0,58,30.01,10.0,South,6.9,-,N/A,,Mostly Cloudy,190,2013-07-27 22:56:00
7:56 PM,73.9,64.0,71,30.03,10.0,South,8.1,-,N/A,,Clear,170,2013-07-27 23:56:00
8:56 PM,72.0,64.9,78,30.04,10.0,South,6.9,-,N/A,,Clear,180,2013-07-28 00:56:00
9:56 PM,70.0,64.0,81,30.04,10.0,South,9.2,-,N/A,,Clear,180,2013-07-28 01:56:00
10:56 PM,66.9,64.0,90,30.05,10.0,SSW,6.9,-,N/A,,Clear,210,2013-07-28 02:56:00
11:56 PM,64.9,64.0,97,30.04,10.0,South,3.5,-,N/A,,Clear,190,2013-07-28 03:56:00